Andrew K — WDF8044 — position and weather

sailwx.info

Track history (hours):
 
Tides and Currents Weather Stations Pressure Air Temp Water Temp Dewpoint Dewpoint Depression Visibility Wind Speed Wind Dir Waves Ship Positions

Andrew K

Owner: G & H Towing Company, Galveston, TX. More information available from US FCC via Universal Licensing System and Coast Guard Vessel Documentation Center.

Last reported at 2017-Nov-17 13:20 UTC. Time now 2017-Nov-19 05:07 UTC.
Position N 29°44' W 095°16'.

Length 27 m; draft 4.6 m.

Type: Tug. MMSI: 367490790.

Date/timePositionNaut miles runAvg speedWind from/ knotsBaromVisibWave heightAir tempDewpointWater temp
2017-Nov-17 13:20N 29°44' W 095°16'0 0.5
2017-Nov-17 13:00N 29°44' W 095°16'0 0.5
2017-Nov-17 12:30N 29°44' W 095°17'2 2.8
2017-Nov-17 11:58N 29°43' W 095°15'0 0.0
2017-Nov-17 11:25N 29°43' W 095°15'0 0.0
2017-Nov-17 09:58N 29°43' W 095°15'0 0.0
2017-Nov-17 09:25N 29°43' W 095°15'0 0.0
2017-Nov-17 08:09N 29°43' W 095°15'0 0.0
2017-Nov-17 08:00N 29°43' W 095°15'0 0.0
2017-Nov-17 07:21N 29°43' W 095°15'0 0.0
2017-Nov-17 06:54N 29°43' W 095°15'0 0.0
2017-Nov-17 06:12N 29°43' W 095°15'0 0.0
2017-Nov-17 05:51N 29°43' W 095°15'0 0.0
2017-Nov-17 04:06N 29°43' W 095°15'0 0.1
2017-Nov-17 04:00N 29°43' W 095°15'0 0.0
2017-Nov-17 03:18N 29°43' W 095°15'1 0.4
2017-Nov-17 00:31N 29°44' W 095°14'0 4.8
2017-Nov-17 00:30N 29°44' W 095°14'1 1.1
2017-Nov-17 00:00N 29°43' W 095°13'1 0.4
2017-Nov-16 20:49N 29°44' W 095°12'3 2.3
2017-Nov-16 19:28N 29°44' W 095°09'0 0.1
2017-Nov-16 18:59N 29°44' W 095°09'2 0.8
2017-Nov-16 16:48N 29°44' W 095°07'5 1.0
2017-Nov-16 11:48N 29°44' W 095°12'0 0.5
2017-Nov-16 11:24N 29°44' W 095°12'0 0.0
2017-Nov-16 11:00N 29°44' W 095°12'1 0.3
2017-Nov-16 09:00N 29°45' W 095°12'2 3.8
2017-Nov-16 08:24N 29°44' W 095°09'1 0.0
2017-Nov-15 14:45N 29°44' W 095°08'5 3.2
2017-Nov-15 13:19N 29°44' W 095°13'1 3.6
2017-Nov-15 12:57N 29°44' W 095°12'0 1.1
2017-Nov-15 12:30N 29°45' W 095°12'3 5.4
2017-Nov-15 12:00N 29°44' W 095°09'0 0.0
2017-Nov-15 11:30N 29°44' W 095°09'0 0.0
2017-Nov-15 11:00N 29°44' W 095°09'0 0.1
2017-Nov-15 10:09N 29°44' W 095°09'0 0.3
2017-Nov-15 10:01N 29°44' W 095°09'0 0.0
2017-Nov-15 09:28N 29°44' W 095°09'0 0.0
2017-Nov-15 08:57N 29°44' W 095°09'0 0.0
2017-Nov-15 08:30N 29°44' W 095°09'0 0.0
2017-Nov-15 07:45N 29°44' W 095°09'0 0.0
2017-Nov-15 07:18N 29°44' W 095°09'0 0.0
2017-Nov-15 07:00N 29°44' W 095°09'0 0.0
2017-Nov-15 06:24N 29°44' W 095°09'0 0.0
2017-Nov-15 05:12N 29°44' W 095°09'0 0.0
2017-Nov-15 04:57N 29°44' W 095°09'0 0.0
2017-Nov-15 04:21N 29°44' W 095°09'0 0.0
2017-Nov-15 03:42N 29°44' W 095°09'0 0.0
2017-Nov-15 03:30N 29°44' W 095°09'1 1.2
2017-Nov-15 02:58N 29°44' W 095°09'1 1.2
2017-Nov-15 02:13N 29°45' W 095°10'1 4.5
2017-Nov-15 02:00N 29°44' W 095°09'2 4.0
2017-Nov-15 01:29N 29°44' W 095°07'0 0.0
2017-Nov-14 20:51N 29°44' W 095°07'2 0.4
2017-Nov-14 15:50N 29°44' W 095°09'0 0.2
2017-Nov-14 14:01N 29°44' W 095°09'1 6.2
2017-Nov-14 13:54N 29°44' W 095°09'0 0.5
2017-Nov-14 13:09N 29°45' W 095°10'1 4.5
2017-Nov-14 12:54N 29°44' W 095°09'2 0.7
2017-Nov-14 09:18N 29°45' W 095°11'3 0.8
2017-Nov-14 05:11N 29°44' W 095°08'0 0.4
2017-Nov-14 04:43N 29°44' W 095°08'1 0.0
2017-Nov-13 01:58N 29°44' W 095°07'0 0.0
2017-Nov-13 01:28N 29°44' W 095°07'0 0.0
2017-Nov-13 00:22N 29°44' W 095°07'2 2.6
2017-Nov-12 23:44N 29°44' W 095°09'0 0.1
2017-Nov-12 23:30N 29°44' W 095°09'0 0.0
2017-Nov-12 23:00N 29°44' W 095°09'0 0.0
2017-Nov-12 19:39N 29°44' W 095°09'2 6.8
2017-Nov-12 19:23N 29°45' W 095°11'3 4.5
2017-Nov-12 18:48N 29°43' W 095°13'1 0.9
2017-Nov-12 17:38N 29°43' W 095°14'1 7.0
2017-Nov-12 17:26N 29°44' W 095°16'1 1.7
2017-Nov-12 17:00N 29°44' W 095°17'0 0.6
2017-Nov-12 16:26N 29°44' W 095°17'0 0.1
2017-Nov-12 15:10N 29°44' W 095°17'0 0.0
2017-Nov-12 14:07N 29°44' W 095°17'0 0.0
2017-Nov-12 13:55N 29°44' W 095°17'0 0.0
2017-Nov-12 13:25N 29°44' W 095°17'0 0.0
2017-Nov-12 12:56N 29°44' W 095°17'0 0.8
2017-Nov-12 12:30N 29°44' W 095°17'2 3.1
2017-Nov-12 12:00N 29°43' W 095°15'0 0.0
2017-Nov-12 11:26N 29°43' W 095°15'0 0.0
2017-Nov-12 10:59N 29°43' W 095°15'0 0.0
2017-Nov-12 10:23N 29°43' W 095°15'0 0.0
2017-Nov-12 09:59N 29°43' W 095°15'0 0.0
2017-Nov-12 09:29N 29°43' W 095°15'1 2.5
2017-Nov-12 08:57N 29°44' W 095°13'0 0.0
2017-Nov-12 08:29N 29°44' W 095°13'1 1.5
2017-Nov-12 08:00N 29°44' W 095°13'1 0.2
2017-Nov-12 03:51N 29°44' W 095°12'0 0.0
2017-Nov-12 03:26N 29°44' W 095°12'3 6.2
2017-Nov-12 03:00N 29°44' W 095°15'1 2.3
2017-Nov-12 02:30N 29°44' W 095°17'0 0.5
2017-Nov-12 01:59N 29°44' W 095°17'1 2.7
2017-Nov-12 01:29N 29°44' W 095°15'3 5.5
2017-Nov-12 01:00N 29°44' W 095°12'0 0.0
2017-Nov-12 00:28N 29°44' W 095°12'0 0.0
2017-Nov-12 00:00N 29°44' W 095°12'0 0.0
2017-Nov-11 23:28N 29°44' W 095°12'0 0.0
2017-Nov-11 23:00N 29°44' W 095°12'0 0.6
2017-Nov-11 22:30N 29°44' W 095°12'0 0.1
2017-Nov-11 21:58N 29°44' W 095°12'0 0.6
2017-Nov-11 21:30N 29°44' W 095°12'3 4.7
2017-Nov-11 20:52N 29°44' W 095°09'2 0.2
2017-Nov-11 13:25N 29°44' W 095°07'0 0.0
2017-Nov-11 11:04N 29°44' W 095°07'0 0.1
2017-Nov-11 10:58N 29°44' W 095°07'0 0.0
2017-Nov-11 10:28N 29°44' W 095°07'0 0.0
2017-Nov-11 10:00N 29°44' W 095°07'4 6.9
2017-Nov-11 09:23N 29°45' W 095°12'2 1.9
2017-Nov-11 08:29N 29°44' W 095°13'1 0.9
2017-Nov-11 07:15N 29°44' W 095°12'0 0.0
2017-Nov-11 07:00N 29°44' W 095°12'0 0.0
2017-Nov-11 06:24N 29°44' W 095°12'0 0.0
2017-Nov-11 05:30N 29°44' W 095°12'0 0.0
2017-Nov-11 05:00N 29°44' W 095°12'0 0.0
2017-Nov-11 04:06N 29°44' W 095°12'0 0.0
2017-Nov-11 02:19N 29°44' W 095°12'0 0.2
2017-Nov-11 01:03N 29°44' W 095°12'2 0.6
2017-Nov-10 21:20N 29°43' W 095°14'2 6.8
2017-Nov-10 21:00N 29°44' W 095°17'0 0.3
2017-Nov-10 20:30N 29°44' W 095°17'1 2.3
2017-Nov-10 19:58N 29°44' W 095°15'8 1.7
2017-Nov-10 15:35N 29°44' W 095°07'0 0.0
2017-Nov-10 15:27N 29°44' W 095°07'0 0.0
2017-Nov-10 12:02N 29°44' W 095°07'0 0.0
2017-Nov-10 11:50N 29°44' W 095°07'0 0.0
2017-Nov-10 11:13N 29°44' W 095°07'1 3.5
2017-Nov-10 10:57N 29°45' W 095°06'1 1.5
2017-Nov-10 10:20N 29°44' W 095°07'0 0.0
2017-Nov-10 09:59N 29°44' W 095°07'0 0.0
2017-Nov-10 09:29N 29°44' W 095°07'0 0.0
2017-Nov-10 08:42N 29°44' W 095°07'2 5.4
2017-Nov-10 08:24N 29°44' W 095°09'1 2.3
2017-Nov-10 07:55N 29°44' W 095°10'3 4.9
2017-Nov-10 07:22N 29°44' W 095°07'0 0.0
2017-Nov-10 06:57N 29°44' W 095°07'0 0.0
2017-Nov-10 06:27N 29°44' W 095°07'0 0.0
2017-Nov-10 05:57N 29°44' W 095°07'0 0.0
2017-Nov-10 05:30N 29°44' W 095°07'2 1.2
2017-Nov-10 04:10N 29°45' W 095°05'2 3.8
2017-Nov-10 03:45N 29°44' W 095°07'0 0.0
2017-Nov-10 01:27N 29°44' W 095°07'0 0.0
2017-Nov-10 00:58N 29°44' W 095°07'0 0.0
2017-Nov-09 15:53N 29°44' W 095°07'0 0.1
2017-Nov-09 12:33N 29°44' W 095°07'1 4.5
2017-Nov-09 12:18N 29°44' W 095°08'0 0.0
2017-Nov-09 11:58N 29°44' W 095°08'1 0.0
2017-Nov-08 23:16N 29°44' W 095°07'4 0.4
2017-Nov-08 13:02N 29°44' W 095°12'0 2.9
2017-Nov-08 13:00N 29°44' W 095°12'0 0.1
2017-Nov-08 12:29N 29°44' W 095°12'1 2.3
2017-Nov-08 11:57N 29°44' W 095°13'0 0.3
2017-Nov-08 11:19N 29°44' W 095°14'1 3.2
2017-Nov-08 10:56N 29°43' W 095°15'0 0.0
2017-Nov-08 10:26N 29°43' W 095°15'0 0.0
2017-Nov-08 09:56N 29°43' W 095°15'0 0.0
2017-Nov-08 09:26N 29°43' W 095°15'0 0.0
2017-Nov-08 08:02N 29°43' W 095°15'0 0.0
2017-Nov-08 07:50N 29°43' W 095°15'0 0.0
2017-Nov-08 07:20N 29°43' W 095°15'0 0.0
2017-Nov-08 06:50N 29°43' W 095°15'0 0.0
2017-Nov-08 06:26N 29°43' W 095°15'2 4.2
2017-Nov-08 06:00N 29°44' W 095°17'0 0.9
2017-Nov-08 05:29N 29°45' W 095°17'1 3.0
2017-Nov-08 05:00N 29°43' W 095°16'1 2.1
2017-Nov-08 04:30N 29°43' W 095°15'0 0.0
2017-Nov-08 03:56N 29°43' W 095°15'0 0.0
2017-Nov-08 03:26N 29°43' W 095°15'0 0.0
2017-Nov-08 03:00N 29°43' W 095°15'1 2.6
2017-Nov-08 02:30N 29°44' W 095°16'4 2.9
2017-Nov-08 01:03N 29°45' W 095°12'4 0.7
2017-Nov-07 18:41N 29°44' W 095°07'2 0.5
2017-Nov-07 15:09N 29°44' W 095°09'  
Track history (hours):
 
Tides and Currents Weather Stations Pressure Air Temp Water Temp Dewpoint Dewpoint Depression Visibility Wind Speed Wind Dir Waves Ship Positions

Andrew K

Owner: G & H Towing Company, Galveston, TX. More information available from US FCC via Universal Licensing System and Coast Guard Vessel Documentation Center.

Last reported at 2017-Nov-17 13:20 UTC. Time now 2017-Nov-19 05:07 UTC.
Position N 29°44' W 095°16'.

Length 27 m; draft 4.6 m.

Type: Tug. MMSI: 367490790.

Date/timePositionNaut miles runAvg speedWind from/ knotsBaromVisibWave heightAir tempDewpointWater temp
2017-Nov-17 13:20N 29°44' W 095°16'0 0.5
2017-Nov-17 13:00N 29°44' W 095°16'0 0.5
2017-Nov-17 12:30N 29°44' W 095°17'2 2.8
2017-Nov-17 11:58N 29°43' W 095°15'0 0.0
2017-Nov-17 11:25N 29°43' W 095°15'0 0.0
2017-Nov-17 09:58N 29°43' W 095°15'0 0.0
2017-Nov-17 09:25N 29°43' W 095°15'0 0.0
2017-Nov-17 08:09N 29°43' W 095°15'0 0.0
2017-Nov-17 08:00N 29°43' W 095°15'0 0.0
2017-Nov-17 07:21N 29°43' W 095°15'0 0.0
2017-Nov-17 06:54N 29°43' W 095°15'0 0.0
2017-Nov-17 06:12N 29°43' W 095°15'0 0.0
2017-Nov-17 05:51N 29°43' W 095°15'0 0.0
2017-Nov-17 04:06N 29°43' W 095°15'0 0.1
2017-Nov-17 04:00N 29°43' W 095°15'0 0.0
2017-Nov-17 03:18N 29°43' W 095°15'1 0.4
2017-Nov-17 00:31N 29°44' W 095°14'0 4.8
2017-Nov-17 00:30N 29°44' W 095°14'1 1.1
2017-Nov-17 00:00N 29°43' W 095°13'1 0.4
2017-Nov-16 20:49N 29°44' W 095°12'3 2.3
2017-Nov-16 19:28N 29°44' W 095°09'0 0.1
2017-Nov-16 18:59N 29°44' W 095°09'2 0.8
2017-Nov-16 16:48N 29°44' W 095°07'5 1.0
2017-Nov-16 11:48N 29°44' W 095°12'0 0.5
2017-Nov-16 11:24N 29°44' W 095°12'0 0.0
2017-Nov-16 11:00N 29°44' W 095°12'1 0.3
2017-Nov-16 09:00N 29°45' W 095°12'2 3.8
2017-Nov-16 08:24N 29°44' W 095°09'1 0.0
2017-Nov-15 14:45N 29°44' W 095°08'5 3.2
2017-Nov-15 13:19N 29°44' W 095°13'1 3.6
2017-Nov-15 12:57N 29°44' W 095°12'0 1.1
2017-Nov-15 12:30N 29°45' W 095°12'3 5.4
2017-Nov-15 12:00N 29°44' W 095°09'0 0.0
2017-Nov-15 11:30N 29°44' W 095°09'0 0.0
2017-Nov-15 11:00N 29°44' W 095°09'0 0.1
2017-Nov-15 10:09N 29°44' W 095°09'0 0.3
2017-Nov-15 10:01N 29°44' W 095°09'0 0.0
2017-Nov-15 09:28N 29°44' W 095°09'0 0.0
2017-Nov-15 08:57N 29°44' W 095°09'0 0.0
2017-Nov-15 08:30N 29°44' W 095°09'0 0.0
2017-Nov-15 07:45N 29°44' W 095°09'0 0.0
2017-Nov-15 07:18N 29°44' W 095°09'0 0.0
2017-Nov-15 07:00N 29°44' W 095°09'0 0.0
2017-Nov-15 06:24N 29°44' W 095°09'0 0.0
2017-Nov-15 05:12N 29°44' W 095°09'0 0.0
2017-Nov-15 04:57N 29°44' W 095°09'0 0.0
2017-Nov-15 04:21N 29°44' W 095°09'0 0.0
2017-Nov-15 03:42N 29°44' W 095°09'0 0.0
2017-Nov-15 03:30N 29°44' W 095°09'1 1.2
2017-Nov-15 02:58N 29°44' W 095°09'1 1.2
2017-Nov-15 02:13N 29°45' W 095°10'1 4.5
2017-Nov-15 02:00N 29°44' W 095°09'2 4.0
2017-Nov-15 01:29N 29°44' W 095°07'0 0.0
2017-Nov-14 20:51N 29°44' W 095°07'2 0.4
2017-Nov-14 15:50N 29°44' W 095°09'0 0.2
2017-Nov-14 14:01N 29°44' W 095°09'1 6.2
2017-Nov-14 13:54N 29°44' W 095°09'0 0.5
2017-Nov-14 13:09N 29°45' W 095°10'1 4.5
2017-Nov-14 12:54N 29°44' W 095°09'2 0.7
2017-Nov-14 09:18N 29°45' W 095°11'3 0.8
2017-Nov-14 05:11N 29°44' W 095°08'0 0.4
2017-Nov-14 04:43N 29°44' W 095°08'1 0.0
2017-Nov-13 01:58N 29°44' W 095°07'0 0.0
2017-Nov-13 01:28N 29°44' W 095°07'0 0.0
2017-Nov-13 00:22N 29°44' W 095°07'2 2.6
2017-Nov-12 23:44N 29°44' W 095°09'0 0.1
2017-Nov-12 23:30N 29°44' W 095°09'0 0.0
2017-Nov-12 23:00N 29°44' W 095°09'0 0.0
2017-Nov-12 19:39N 29°44' W 095°09'2 6.8
2017-Nov-12 19:23N 29°45' W 095°11'3 4.5
2017-Nov-12 18:48N 29°43' W 095°13'1 0.9
2017-Nov-12 17:38N 29°43' W 095°14'1 7.0
2017-Nov-12 17:26N 29°44' W 095°16'1 1.7
2017-Nov-12 17:00N 29°44' W 095°17'0 0.6
2017-Nov-12 16:26N 29°44' W 095°17'0 0.1
2017-Nov-12 15:10N 29°44' W 095°17'0 0.0
2017-Nov-12 14:07N 29°44' W 095°17'0 0.0
2017-Nov-12 13:55N 29°44' W 095°17'0 0.0
2017-Nov-12 13:25N 29°44' W 095°17'0 0.0
2017-Nov-12 12:56N 29°44' W 095°17'0 0.8
2017-Nov-12 12:30N 29°44' W 095°17'2 3.1
2017-Nov-12 12:00N 29°43' W 095°15'0 0.0
2017-Nov-12 11:26N 29°43' W 095°15'0 0.0
2017-Nov-12 10:59N 29°43' W 095°15'0 0.0
2017-Nov-12 10:23N 29°43' W 095°15'0 0.0
2017-Nov-12 09:59N 29°43' W 095°15'0 0.0
2017-Nov-12 09:29N 29°43' W 095°15'1 2.5
2017-Nov-12 08:57N 29°44' W 095°13'0 0.0
2017-Nov-12 08:29N 29°44' W 095°13'1 1.5
2017-Nov-12 08:00N 29°44' W 095°13'1 0.2
2017-Nov-12 03:51N 29°44' W 095°12'0 0.0
2017-Nov-12 03:26N 29°44' W 095°12'3 6.2
2017-Nov-12 03:00N 29°44' W 095°15'1 2.3
2017-Nov-12 02:30N 29°44' W 095°17'0 0.5
2017-Nov-12 01:59N 29°44' W 095°17'1 2.7
2017-Nov-12 01:29N 29°44' W 095°15'3 5.5
2017-Nov-12 01:00N 29°44' W 095°12'0 0.0
2017-Nov-12 00:28N 29°44' W 095°12'0 0.0
2017-Nov-12 00:00N 29°44' W 095°12'0 0.0
2017-Nov-11 23:28N 29°44' W 095°12'0 0.0
2017-Nov-11 23:00N 29°44' W 095°12'0 0.6
2017-Nov-11 22:30N 29°44' W 095°12'0 0.1
2017-Nov-11 21:58N 29°44' W 095°12'0 0.6
2017-Nov-11 21:30N 29°44' W 095°12'3 4.7
2017-Nov-11 20:52N 29°44' W 095°09'2 0.2
2017-Nov-11 13:25N 29°44' W 095°07'0 0.0
2017-Nov-11 11:04N 29°44' W 095°07'0 0.1
2017-Nov-11 10:58N 29°44' W 095°07'0 0.0
2017-Nov-11 10:28N 29°44' W 095°07'0 0.0
2017-Nov-11 10:00N 29°44' W 095°07'4 6.9
2017-Nov-11 09:23N 29°45' W 095°12'2 1.9
2017-Nov-11 08:29N 29°44' W 095°13'1 0.9
2017-Nov-11 07:15N 29°44' W 095°12'0 0.0
2017-Nov-11 07:00N 29°44' W 095°12'0 0.0
2017-Nov-11 06:24N 29°44' W 095°12'0 0.0
2017-Nov-11 05:30N 29°44' W 095°12'0 0.0
2017-Nov-11 05:00N 29°44' W 095°12'0 0.0
2017-Nov-11 04:06N 29°44' W 095°12'0 0.0
2017-Nov-11 02:19N 29°44' W 095°12'0 0.2
2017-Nov-11 01:03N 29°44' W 095°12'2 0.6
2017-Nov-10 21:20N 29°43' W 095°14'2 6.8
2017-Nov-10 21:00N 29°44' W 095°17'0 0.3
2017-Nov-10 20:30N 29°44' W 095°17'1 2.3
2017-Nov-10 19:58N 29°44' W 095°15'8 1.7
2017-Nov-10 15:35N 29°44' W 095°07'0 0.0
2017-Nov-10 15:27N 29°44' W 095°07'0 0.0
2017-Nov-10 12:02N 29°44' W 095°07'0 0.0
2017-Nov-10 11:50N 29°44' W 095°07'0 0.0
2017-Nov-10 11:13N 29°44' W 095°07'1 3.5
2017-Nov-10 10:57N 29°45' W 095°06'1 1.5
2017-Nov-10 10:20N 29°44' W 095°07'0 0.0
2017-Nov-10 09:59N 29°44' W 095°07'0 0.0
2017-Nov-10 09:29N 29°44' W 095°07'0 0.0
2017-Nov-10 08:42N 29°44' W 095°07'2 5.4
2017-Nov-10 08:24N 29°44' W 095°09'1 2.3
2017-Nov-10 07:55N 29°44' W 095°10'3 4.9
2017-Nov-10 07:22N 29°44' W 095°07'0 0.0
2017-Nov-10 06:57N 29°44' W 095°07'0 0.0
2017-Nov-10 06:27N 29°44' W 095°07'0 0.0
2017-Nov-10 05:57N 29°44' W 095°07'0 0.0
2017-Nov-10 05:30N 29°44' W 095°07'2 1.2
2017-Nov-10 04:10N 29°45' W 095°05'2 3.8
2017-Nov-10 03:45N 29°44' W 095°07'0 0.0
2017-Nov-10 01:27N 29°44' W 095°07'0 0.0
2017-Nov-10 00:58N 29°44' W 095°07'0 0.0
2017-Nov-09 15:53N 29°44' W 095°07'0 0.1
2017-Nov-09 12:33N 29°44' W 095°07'1 4.5
2017-Nov-09 12:18N 29°44' W 095°08'0 0.0
2017-Nov-09 11:58N 29°44' W 095°08'1 0.0
2017-Nov-08 23:16N 29°44' W 095°07'4 0.4
2017-Nov-08 13:02N 29°44' W 095°12'0 2.9
2017-Nov-08 13:00N 29°44' W 095°12'0 0.1
2017-Nov-08 12:29N 29°44' W 095°12'1 2.3
2017-Nov-08 11:57N 29°44' W 095°13'0 0.3
2017-Nov-08 11:19N 29°44' W 095°14'1 3.2
2017-Nov-08 10:56N 29°43' W 095°15'0 0.0
2017-Nov-08 10:26N 29°43' W 095°15'0 0.0
2017-Nov-08 09:56N 29°43' W 095°15'0 0.0
2017-Nov-08 09:26N 29°43' W 095°15'0 0.0
2017-Nov-08 08:02N 29°43' W 095°15'0 0.0
2017-Nov-08 07:50N 29°43' W 095°15'0 0.0
2017-Nov-08 07:20N 29°43' W 095°15'0 0.0
2017-Nov-08 06:50N 29°43' W 095°15'0 0.0
2017-Nov-08 06:26N 29°43' W 095°15'2 4.2
2017-Nov-08 06:00N 29°44' W 095°17'0 0.9
2017-Nov-08 05:29N 29°45' W 095°17'1 3.0
2017-Nov-08 05:00N 29°43' W 095°16'1 2.1
2017-Nov-08 04:30N 29°43' W 095°15'0 0.0
2017-Nov-08 03:56N 29°43' W 095°15'0 0.0
2017-Nov-08 03:26N 29°43' W 095°15'0 0.0
2017-Nov-08 03:00N 29°43' W 095°15'1 2.6
2017-Nov-08 02:30N 29°44' W 095°16'4 2.9
2017-Nov-08 01:03N 29°45' W 095°12'4 0.7
2017-Nov-07 18:41N 29°44' W 095°07'2 0.5
2017-Nov-07 15:09N 29°44' W 095°09'  

Dump ship's entire track history